{"data":{"norad_id":68435,"intl_designator":"2026-067V","name":"ION SCV-019 (ASTOUNDIN*)","alt_names":[],"object_type":"PAYLOAD","status":"ACTIVE","operator":null,"country":"IT","launch_date":"2026-03-30","launch_site_code":"AFWTR","launch_vehicle":null,"mission":null,"orbit_class":"UNKNOWN","rcs_meters":null,"size_class":null,"mass_kg":null,"dimensions":null,"purposes":[],"wikipedia_slug":null,"has_3d_model":false,"image_url":null,"decayed_at":null,"tle_current":{"epoch":"2026-09-20T04:35:58.470144Z","epoch_age_seconds":95969,"freshness":"FRESH","line1":"1 68435U 26067V   26263.19164896  .00002734  00000+0  12911-3 0  9992","line2":"2 68435  97.4657 220.6206 0011341  72.2851 287.9621 15.20235447 26375","mean_motion":15.20235447,"eccentricity":0.0011341,"inclination_deg":97.4657,"raan_deg":220.6206,"arg_perigee_deg":72.2851,"mean_anomaly_deg":287.9621,"bstar":0.00012911,"rev_number":2637,"period_min":94.722169703493,"perigee_km":497.3235101857,"apogee_km":512.93613599383,"semimajor_km":6883.2668230898,"source":"CELESTRAK","updated_at":"2026-09-20T09:00:24.203766Z"}}}